www.pogodaiklimat.ru

Погода и климат >> Архив погоды >> Германия >> Нюрбург-Барвайлер


ПОГОДА в Нюрбург-Барвайлере

  • Прогноз погоды в Нюрбург-Барвайлере
  • Монитор погоды в Нюрбург-Барвайлере

АРХИВ ПОГОДЫ в Нюрбург-Барвайлере

Время (UTC), дата Ветер
(напр.,м/с)
 
Видим.   Явления Облачность Т
(С)
Тd
(С)
f
(%)
Тe
(С)
Тes
(С)
Комфортность P
(гПа)
Po
(гПа)
Тmin
(С)
Tmax
(С)
R
(мм)
R24
(мм)
S
(см)
10 18.06 В 4 22 км 6/6 1410 м
[]
+23.7 +12.3 49 +26 +30 жарко 1013.6 958.8
11 18.06 ЮВ 2 55 км 9/9 1500 м
[]
+24.2 +11.7 46 +26 +28 жарко 1013.3 958.6
12 18.06 ЮВ 3 30 км 10/0 2000 м
[]
+25.6 +12.6 44 +27 +35 жарко 1012.6 958.2
13 18.06 Ю 3 30 км 9/0 2000 м
[]
+25.0 +12.3 45 +27 +34 жарко 1012.5 958.0
14 18.06 Ю 3 40 км 9/0
[]
+25.4 +12.7 45 +27 +33 жарко 1012.1 957.7
15 18.06 ЮЗ 3 45 км 10/0
[]
+25.3 +11.7 43 +27 +31 жарко 1011.9 957.5
16 18.06 ЮЗ 3-7
{7}
35 км 10/0
[]
+25.7 +11.9 42 +27 +30 жарко 1011.4 957.1
17 18.06 ЮЗ 2 50 км 10/0
[]
+25.1 +11.6 43 +27 +28 жарко 1011.3 956.9
18 18.06 Ю 2 55 км 10/0
[]
+25.4 +12.2 44 +27 +28 жарко 1010.9 956.6 +15.5 +26.1
19 18.06 Ю 1 50 км 10/0
[]
+23.8 +13.0 51 +26 +26 жарко 1011.1 956.5
20 18.06 Ю 2 45 км 10/0
[]
+21.8 +12.7 56 +24 +24 комфорт 1011.7 956.7
21 18.06 Ю 2 45 км 10/0
[]
+20.9 +12.4 58 +24 +24 комфорт 1011.8 956.6
22 18.06 Ю 2 45 км 10/0
[]
+20.3 +12.2 60 +23 +23 комфорт 1011.6 956.3
23 18.06 Ю 1-1
{2}
40 км 10/0
[]
+19.0 +12.5 66 +21 +21 комфорт 1011.5 956.0
00 19.06 З 1 35 км 10/0
[]
+17.0 +12.5 75 +18 +18 1011.4 955.5
01 19.06 штиль 0-1
{2}
35 км 1/0
[]
+16.8 +12.4 75 +17 +17 1011.1 955.2
02 19.06 Ю 1 30 км 5/0
[]
+16.4 +12.4 77 +17 +17 1010.8 954.8
03 19.06 Ю 2 30 км 1/0
[]
+16.5 +12.6 78 +17 +17 1010.2 954.3
04 19.06 ЮЗ 2-2
{4}
27 км 1/1 30 м
[]
+16.0 +12.5 80 +16 +16 1010.2 954.2
05 19.06 Ю 1-3
{3}
28 км ясно +18.8 +11.9 64 +21 +22 комфорт 1009.2 953.8
06 19.06 Ю 3 30 км ясно +21.7 +12.3 55 +24 +27 комфорт 1008.0 953.2 +15.1 +25.2
07 19.06 Ю 3-6
{6}
28 км ясно +22.8 +13.0 54 +26 +31 жарко 1007.7 953.1
08 19.06 Ю 4-7
{11}
22 км ясно +23.3 +12.0 49 +26 +32 жарко 1007.8 953.3
09 19.06 ЮЗ 5 20 км 3/0
[]
+24.8 +12.5 46 +27 +32 жарко 1007.6 953.3
10 19.06 ЮЗ 4 17 км слаб. дождь {морось} 10/0
[]
+20.4 +13.6 65 +23 +28 комфорт 1008.9 953.8
11 19.06 ЮЗ 3 45 км в посл. час дождь 10/0
[]
+22.1 +13.5 58 +25 +32 комфорт 1008.1 953.4
12 19.06 З 3 55 км в посл. час дождь {морось} 10/0
[]
+24.6 +12.4 47 +26 +34 жарко 1007.9 953.6 0.0
13 19.06 З 5 35 км 10/0
[]
+23.9 +11.6 46 +25 +30 комфорт 1009.0 954.5
14 19.06 В 3 35 км в посл. час дождь {морось} 6/0
[]
+22.8 +12.9 54 +26 +34 жарко 1008.2 953.6
15 19.06 ЮЗ 3-6
{13}
22 км {дождь, морось} ясно +25.7 +11.2 40 +27 +35 жарко 1007.0 952.9 0.0
16 19.06 Ю 4 40 км 9/9 1500 м
[]
+24.5 +13.7 51 +27 +27 жарко 1006.8 952.6
17 19.06 Ю 4-7
{9}
35 км 3/0
[]
+23.7 +12.4 49 +26 +27 жарко 1006.8 952.4
18 19.06 З 5 40 км слаб. дождь {морось} 10/0
[]
+22.6 +12.3 52 +25 +25 комфорт 1007.9 953.2 +18.9 +26.2 0.0
19 19.06 ЮЗ 3 45 км в посл. час дождь 10/0
[]
+19.3 +14.2 72 +21 +21 комфорт 1008.8 953.5
20 19.06 ЮЗ 1 40 км 10/0
[]
+17.9 +14.3 79 +19 +19 1009.4 953.8
21 19.06 ЮЗ 2 35 км {дождь} 10/0
[]
+17.0 +13.8 81 +17 +17 1009.8 954.0 0.2
22 19.06 Ю 2 40 км 6/0
[]
+16.5 +13.1 80 +17 +17 1010.0 954.1
23 19.06 ЮЗ 3 40 км 4/0
[]
+16.6 +13.0 79 +16 +16 1010.0 954.1
00 20.06 ЮЗ 2 35 км {дождь} 10/0
[]
+15.5 +12.6 83 +15 +15 1010.3 954.2
01 20.06 ЮЗ 3 40 км 10/10 930 м
[]
+15.7 +12.8 83 +15 +15 1010.5 954.4
02 20.06 Ю 2-3
{6}
35 км ясно +14.8 +12.7 87 +14 +14 1010.8 954.6
03 20.06 ЮЗ 2 30 км 5/5 540 м
[]
+13.9 +12.3 90 +13 +13 1011.1 954.7
04 20.06 З 2 29 км 10/10 360 м
[]
+14.5 +12.8 90 +14 +14 1011.6 955.3
05 20.06 ЮЗ 1 30 км 9/9 800 м
[]
+15.1 +12.1 82 +16 +16 1011.6 955.4
06 20.06 З 3 30 км 10/10 300 м
[]
+14.7 +11.8 83 +14 +14 1012.4 956.0 +13.9 +22.5 0.2
07 20.06 З 3-4
{4}
35 км 10/10 420 м
[]
+14.8 +11.6 81 +14 +14 1012.7 956.3
08 20.06 З 1 35 км 9/9 420 м
[]
+15.5 +11.7 78 +16 +17 1012.7 956.5
09 20.06 ЮЗ 2 50 км 9/9 570 м
[]
+16.9 +12.0 73 +17 +18 1012.5 956.5
10 20.06 З 3 40 км 9/9 600 м
[]
+17.7 +12.7 73 +18 +19 1012.4 956.6
11 20.06 ЮЗ 3 30 км 9/9 800 м
[]
+20.0 +12.4 62 +22 +24 комфорт 1011.7 956.4
12 20.06 З 4 35 км 10/10 1200 м
[]
+20.3 +12.2 60 +22 +22 комфорт 1011.4 956.1
13 20.06 ЮЗ 2 4900 м слаб. дождь 10/10 720 м
[]
+14.6 +14.4 99 +14 +14 1013.4 957.0
14 20.06 З 2 16 км в посл. час дождь {морось} 9/9 270 м
[]
+16.0 +15.2 95 +16 +17 1012.9 956.8
15 20.06 З 3 45 км в посл. час дождь {морось} 10/10 930 м
[]
+16.4 +13.2 81 +16 +16 1013.1 957.0 11
16 20.06 СЗ 3 22 км слаб. морось {дождь} 9/9 360 м
[]
+15.5 +14.1 91 +15 +15 1013.5 957.3
17 20.06 З 2 45 км в посл. час дождь {морось} 9/9 1110 м
[]
+16.1 +13.1 82 +16 +16 1013.9 957.7
18 20.06 ЮЗ 2 30 км в посл. час дождь {морось} 9/0
[]
+15.9 +13.3 85 +16 +17 1014.2 958.0 +13.9 +21.0 0.2
19 20.06 Ю 2-3
{3}
28 км 9/0
[]
+15.5 +13.4 87 +15 +15 1014.7 958.4
20 20.06 З 2-4
{4}
30 км ясно +15.0 +12.3 84 +15 +15 1015.6 959.1
21 20.06 З 2 27 км 9/0 2000 м
[]
+14.3 +11.8 85 +14 +14 1015.9 959.3
22 20.06 З 1 25 км 9/9 570 м
[]
+13.4 +11.6 89 +14 +14 1016.7 959.8
23 20.06 ЮЗ 2 25 км 9/9 570 м
[]
+13.3 +11.3 88 +13 +13 1017.3 960.4
00 21.06 З 2 30 км 9/9 1000 м
[]
+13.2 +10.3 83 +12 +12 1017.5 960.5
01 21.06 З 2 40 км 9/9 1200 м
[]
+12.7 +9.4 80 +12 +12 1017.8 960.7
02 21.06 ЮЗ 2 35 км 9/9 1350 м
[]
+12.0 +9.3 84 +11 +11 1018.1 960.8
03 21.06 З 2 45 км 9/9 1200 м
[]
+11.4 +8.5 82 +10 +10 1018.2 960.8
04 21.06 З 1 40 км 9/9 1470 м
[]
+10.9 +8.4 85 +11 +11 1018.7 961.2
05 21.06 ЮЗ 2 40 км 9/9 1500 м
[]
+10.8 +8.1 83 +9 +10 1019.0 961.4
06 21.06 ЮЗ 1 45 км 8/0
[]
+12.0 +7.0 71 +12 +14 1019.2 961.8 +10.7 +15.8
07 21.06 З 2 35 км 10/0
[]
+13.0 +7.5 69 +12 +15 1019.4 962.2
08 21.06 З 2-3
{4}
30 км 3/0
[]
+14.3 +7.3 63 +14 +22 1019.3 962.4
09 21.06 З 3 30 км ясно +16.3 +6.2 51 +16 +27 1019.0 962.5
10 21.06 З 3-7
{8}
35 км ясно +16.6 +4.1 43 +16 +30 опасность
простуды
1019.3 962.8
11 21.06 СЗ 2-4
{9}
27 км ясно +17.3 +4.3 42 +18 +35 опасность
простуды
1019.2 962.8
12 21.06 З 3 45 км 5/5 1500 м
[]
+18.8 +6.6 45 +19 +27 1018.8 962.7
13 21.06 З 3-5
{6}
55 км 1/1 1500 м
[]
+18.9 +5.5 41 +19 +31 опасность
простуды
1018.6 962.6
14 21.06 ЮЗ 2-4
{7}
35 км 6/6 1500 м
[]
+19.8 +5.1 38 +21 +26 комфорт 1018.5 962.6
15 21.06 С 3 70 км 6/6 1500 м
[]
+18.6 +5.6 42 +19 +22 1018.7 962.6
16 21.06 С 4-6
{6}
70 км ясно +16.8 +7.6 55 +16 +21 1019.0 962.6
17 21.06 СВ 3-5
{6}
70 км ясно +16.3 +7.8 57 +16 +19 1019.3 962.8
18 21.06 С 3 60 км 1/1 1000 м
[]
+16.1 +7.2 56 +16 +17 1019.7 963.1 +12.0 +20.0
19 21.06 С 4-5
{7}
55 км ясно +15.8 +7.5 58 +15 +15 1020.0 963.3
20 21.06 С 3-4
{6}
65 км ясно +14.4 +7.3 62 +14 +14 1020.9 963.9
21 21.06 С 2-4
{7}
55 км ясно +13.4 +7.4 67 +13 +13 1021.6 964.4
22 21.06 СВ 2-3
{4}
45 км ясно +12.6 +8.0 74 +12 +12 1022.1 964.7
23 21.06 СВ 2-3
{3}
35 км 5/5 1500 м
[]
+12.4 +8.4 77 +12 +12 1022.2 964.8
00 22.06 С 2 25 км ясно +11.7 +8.4 80 +11 +11 1022.4 964.8
01 22.06 СВ 1-2
{3}
21 км ясно +10.7 +8.3 85 +10 +10 1022.5 964.7
02 22.06 С 2-3
{3}
17 км ясно +10.1 +7.9 86 +9 +9 1022.3 964.4
03 22.06 СВ 1 13 км 3/0
[]
+9.7 +8.0 89 +9 +9 1022.0 964.1
04 22.06 СВ 1-2
{3}
11 км 5/0
[]
+9.8 +8.2 90 +9 +9 1021.9 964.0
05 22.06 СВ 1 10 км 9/0
[]
+10.9 +8.4 85 +11 +11 1021.5 963.8
06 22.06 СВ 2 10 км 4/0
[]
+12.3 +9.0 80 +11 +14 1021.2 963.8 +9.2 +16.5
07 22.06 СВ 3-4
{4}
16 км 10/0
[]
+14.0 +9.8 76 +13 +15 1020.7 963.7
08 22.06 С 2 16 км 6/0
[]
+15.8 +10.1 69 +16 +23 1020.2 963.6
09 22.06 СВ 3 21 км ясно +17.5 +10.6 64 +18 +28 1019.6 963.3
10 22.06 СВ 3-6
{7}
30 км 1/1 1050 м
[]
+19.5 +10.3 55 +21 +33 комфорт 1019.2 963.3
11 22.06 СВ 3-6
{8}
23 км 3/0
[]
+20.1 +10.4 54 +22 +34 комфорт 1018.9 963.1
12 22.06 СВ 4 20 км 9/9 1350 м
[]
+20.7 +11.2 54 +23 +24 комфорт 1018.5 962.9
13 22.06 СВ 3 н/о 6/6 1230 м
[]
+20.9 +11.2 54 +23 +29 комфорт 1018.0 962.5
14 22.06 СВ 3 26 км 9/9 1470 м
[]
+22.5 +11.8 51 +25 +26 комфорт 1017.1 961.9
15 22.06 СВ 3 40 км 9/9 1470 м
[]
+22.0 +10.5 48 +24 +25 комфорт 1017.1 961.8
16 22.06 С 3 35 км 8/8 1500 м
[]
+22.3 +10.9 48 +24 +25 комфорт 1016.6 961.4
17 22.06 С 4 35 км 10/10 1500 м
[]
+21.7 +11.0 51 +24 +24 комфорт 1016.8 961.5
18 22.06 С 4 30 км 1/0 2000 м
[]
+21.4 +11.5 53 +23 +24 комфорт 1017.0 961.6 +12.4 +23.1
19 22.06 СВ 3 45 км 4/4 1350 м
[]
+20.0 +12.1 60 +22 +22 комфорт 1017.3 961.6
20 22.06 С 2-3
{5}
35 км ясно +18.7 +12.2 66 +20 +20 1017.6 961.7
21 22.06 В 3-5
{6}
30 км ясно +18.1 +12.5 70 +18 +18 1018.2 962.2
22 22.06 В 2-2
{4}
28 км 1/1 1300 м
[]
+17.2 +12.7 75 +18 +18 1018.3 962.1
23 22.06 З 1-2
{3}
23 км ясно +16.0 +12.4 79 +17 +17 1018.9 962.4
00 23.06 В 1 17 км ясно +15.2 +12.6 84 +16 +16 1019.0 962.4
01 23.06 СЗ 1-2
{2}
13 км ясно +13.9 +11.7 87 +14 +14 1019.3 962.4
02 23.06 С 1-2
{2}
16 км ясно +14.2 +12.3 88 +15 +15 1019.2 962.4
03 23.06 штиль 0-1
{2}
12 км ясно +13.7 +12.2 91 +13 +13 1019.0 962.1
04 23.06 СЗ 1-2
{3}
5000 м дымка ясно +12.5 +11.4 93 +12 +13 1019.3 962.1
05 23.06 В 2-4
{4}
19 км ясно +15.7 +12.3 80 +16 +17 1019.0 962.5
06 23.06 В 3 24 км ясно +17.7 +12.5 72 +18 +20 1018.5 962.4 +12.3 +21.4
07 23.06 В 3-5
{5}
26 км ясно +19.7 +13.2 66 +22 +27 комфорт 1018.3 962.6
08 23.06 В 4-7
{7}
16 км ясно +20.7 +13.3 63 +23 +30 комфорт 1018.4 962.8
09 23.06 В 6 14 км ясно +21.4 +13.1 59 +24 +29 комфорт 1018.1 962.7
10 23.06 В 4-9
{9}
45 км 3/3 960 м
[]
+22.4 +13.5 57 +25 +33 комфорт 1017.8 962.6
11 23.06 В 5-9
{10}
23 км 5/5 1050 м
[]
+22.7 +14.0 58 +26 +31 жарко 1017.5 962.4
12 23.06 В 5 30 км 8/8 1110 м
[]
+24.1 +14.6 55 +27 +29 жарко 1017.3 962.4
13 23.06 В 5 30 км 8/8 1300 м
[]
+23.9 +13.7 53 +26 +28 жарко 1017.0 962.1
14 23.06 ЮВ 5 30 км 8/8 1500 м
[]
+23.8 +13.2 51 +26 +27 жарко 1016.9 962.0
15 23.06 ЮВ 6 25 км 4/4 1500 м
[]
+25.5 +13.1 46 +27 +30 жарко 1016.4 961.8
16 23.06 ЮВ 4 30 км 9/9 1500 м
[]
+24.2 +12.6 48 +26 +26 жарко 1016.8 961.9
17 23.06 В 3 40 км 9/9 1500 м
[]
+24.5 +13.3 50 +27 +27 жарко 1016.4 961.6
18 23.06 ЮВ 3 35 км 10/0
[]
+24.1 +13.2 51 +26 +27 жарко 1016.6 961.7 +17.8 +25.8
19 23.06 ЮВ 2 45 км 10/0
[]
+23.2 +13.7 55 +27 +27 душно 1016.8 961.8
20 23.06 ЮВ 2 35 км 10/0
[]
+21.9 +13.8 60 +25 +25 комфорт 1017.5 962.2
21 23.06 В 2 35 км 10/0
[]
+20.4 +13.8 66 +23 +23 комфорт 1018.2 962.6
22 23.06 ЮВ 2 35 км 10/0
[]
+20.8 +13.8 64 +24 +24 комфорт 1018.3 962.8
23 23.06 ЮВ 3 35 км 10/0
[]
+20.5 +13.7 65 +23 +23 комфорт 1018.4 962.8
00 24.06 ЮВ 3 30 км 10/0
[]
+20.1 +13.7 67 +23 +23 комфорт 1018.8 963.1
01 24.06 ЮВ 3 30 км 9/0
[]
+19.6 +13.8 69 +22 +22 комфорт 1018.9 963.1
02 24.06 ЮВ 2-4
{6}
30 км 3/0
[]
+19.0 +13.8 72 +21 +21 комфорт 1018.9 963.0
03 24.06 ЮВ 4 30 км 10/0
[]
+18.5 +13.9 75 +19 +19 1018.8 962.8
04 24.06 ЮВ 3 35 км 10/0
[]
+18.3 +14.0 76 +19 +19 1018.8 962.8
05 24.06 ЮВ 2 26 км 10/0
[]
+18.7 +14.4 76 +20 +21 1018.9 963.0
06 24.06 ЮВ 3 25 км 6/0
[]
+18.9 +14.5 76 +20 +22 1019.1 963.2 +18.1 +24.1
07 24.06 ЮВ 5-8
{8}
26 км 10/0
[]
+21.1 +15.2 69 +24 +26 комфорт 1018.8 963.3
08 24.06 ЮВ 4-8
{8}
20 км 5/0
[]
+22.4 +15.4 65 +26 +31 жарко 1018.5 963.3
09 24.06 ЮВ 4 16 км ясно +24.1 +15.6 59 +27 +36 жарко 1018.2 963.3
10 24.06 В 5-8
{10}
18 км 1/0
[]
+25.4 +14.8 52 +28 +36 жарко 1017.6 963.0
11 24.06 В 6-11
{11}
24 км 9/0
[]
+26.1 +14.1 48 +28 +32 жарко 1017.4 962.9
12 24.06 ЮВ 5 25 км 5/0
[]
+27.2 +13.6 43 +29 +36 жарко 1017.0 962.7
13 24.06 ЮВ 4 20 км 5/5 1500 м
[]
+27.5 +14.4 45 +30 +35 жарко 1017.1 962.8
14 24.06 Ю 3 26 км 4/4 1500 м
[]
+28.6 +14.8 43 +31 +38 жарко 1016.7 962.7
15 24.06 ЮВ 3 24 км 9/9 1500 м
[]
+28.3 +15.1 45 +31 +32 душно 1016.9 962.8
16 24.06 В 4 21 км 8/8 1500 м
[]
+27.9 +14.9 45 +30 +31 жарко 1016.7 962.5
17 24.06 ЮВ 2 35 км 8/8 1500 м
[]
+29.0 +15.2 43 +32 +32 душно 1016.8 962.8
18 24.06 В 3 29 км 10/0
[]
+27.2 +14.9 47 +30 +30 душно 1016.7 962.4 +19.1 +29.2
19 24.06 ЮВ 3 50 км 4/0
[]
+25.8 +14.7 50 +28 +28 жарко 1017.2 962.6
20 24.06 ЮВ 2-4
{4}
45 км ясно +24.2 +15.0 56 +27 +27 жарко 1017.6 962.7
21 24.06 В 2 40 км 4/0
[]
+22.8 +15.5 63 +27 +27 душно 1018.1 963.0
22 24.06 В 3 35 км 9/0
[]
+22.9 +15.5 63 +27 +27 душно 1018.1 963.0
23 24.06 ЮВ 4 40 км 9/0
[]
+22.6 +15.1 63 +26 +26 жарко 1017.6 962.5
00 25.06 ЮВ 5 40 км 6/0
[]
+22.3 +14.8 63 +26 +26 жарко 1017.7 962.5
01 25.06 ЮВ 4 40 км 10/0
[]
+21.7 +14.5 64 +25 +25 комфорт 1017.5 962.2
02 25.06 ЮВ 3 40 км 10/0
[]
+21.4 +14.1 63 +24 +24 комфорт 1017.3 961.9
03 25.06 ЮВ 3 40 км 10/0
[]
+20.7 +14.0 65 +24 +24 комфорт 1017.1 961.6
04 25.06 ЮВ 3 45 км 10/0
[]
+20.4 +14.1 67 +23 +23 комфорт 1017.3 961.8
05 25.06 ЮВ 3 35 км 10/0
[]
+21.2 +14.5 66 +24 +25 комфорт 1017.2 961.8
06 25.06 В 2 35 км 10/0
[]
+22.2 +14.9 63 +26 +27 душно 1017.3 962.1 +20.3 +27.2
07 25.06 ЮВ 3 35 км 10/0
[]
+23.1 +15.4 62 +27 +30 душно 1017.3 962.3
08 25.06 ЮВ 4 27 км 10/0
[]
+25.1 +16.2 58 +28 +32 жарко 1017.1 962.5
09 25.06 ЮВ 4 30 км 10/0
[]
+25.7 +15.8 54 +29 +33 душно 1017.4 962.8
10 25.06 Ю 3-6
{7}
21 км 5/0
[]
+28.7 +15.8 46 +32 +42 душно 1016.9 962.9

 

Местоположение метеостанции Нюрбург-Барвайлер (Германия): широта 50.37 долгота 6.87 высота над уровнем моря 488 м.

В архиве по умолчанию представлена погода в Нюрбург-Барвайлере за последнюю неделю. Архивные данные за месяц целиком и за предыдущие месяцы, начиная с января 2011 года, Вы можете получить, выбрав интересующий диапазон дат из раскрывающегося списка и нажав кнопку "Ввод!".


*Определитесь, кто Вы:
робот инопланетянин человек

Внимание! Время в таблицах - всемирное. Для получения местного времени необходимо прибавить поправку, которая равна 1 ч.

Смотрите также архив погоды в соседних городах и на ближайших метеорологических станциях:

Погода на Базе ВВС Buechel (Германия) (26 км)
Погода в Андернахе (Германия) (40 км)
Погода в Бонне (Германия) (46 км)
Погода в Элзенборне (Бельгия) (50 км)
Погода в Кобленце (Германия) (50 км)
Погода в Нёрфенихе (Германия) (53 км)
Погода в Аэропорту Франкфурт-Хан (Германия) (55 км)
Погода на Монт-Риги (Бельгия) (59 км)
Погода в Кёльне (Германия) (60 км)
Погода в Дойзельбахе (Германия) (68 км)

Пояснения к столбцам:

Ветер - указаны скорость ветра в м/с - средняя за 10 мин, порывы в срок и между сроками (в фигурных скобках) и направление, откуда дует ветер: С - северный, СВ - северо-восточный, В - восточный, ЮВ - юго-восточный, Ю - южный, ЮЗ - юго-западный, З - западный, СЗ - северо-западный.
Видимость - горизонтальная дальность видимости в метрах или километрах. При видимости от 1 до 10 км при отсутствии осадков обычно наблюдается дымка, при ухудшении видимости до 1 км и менее - туман. В сухую погоду видимость может ухудшаться дымом, пылью или мглою.
Явления - указаны атмосферные явления, наблюдавшиеся в срок или в последний час перед сроком; фигурными скобками обозначены явления, наблюдавшиеся между сроками (за 1-3 часа до срока); квадратными скобками обозначены град или гололедные отложения с указанием их диаметра в мм.
Облачность - указаны через наклонную черту общая и нижняя облачность в баллах и высота нижней границы облаков в метрах; квадратными скобками обозначены формы облаков: Ci - перистые, Cs - перисто-слоистые, Cc - перисто-кучевые, Ac - высококучевые, As - высокослоистые, Sc - слоисто-кучевые, Ns - слоисто-дождевые, Cu - кучевые, Cb - кучево-дождевые. Подробнее классификацию облаков см. в Атласе облаков (PDF).
T - Температура воздуха - температура, измеренная на высоте 2 м над землей.
Td - Температура точки росы - температура, при понижении до которой содержащийся в воздухе водяной пар достигнет насыщения.
f - Относительная влажность воздуха - влажноcть воздуха, измеренная на высоте 2 м над землей.
Te - Эффективная температура - температура, которую ощущает одетый по сезону человек в тени. Характеристика душности погоды. При расчете учитывается влияние влажности воздуха и скорости ветра на теплоощущения человека.
Tes - Эффективная температура на солнце - температура, которую ощущает человек, с поправкой на солнечный нагрев. Характеристика знойности погоды. Зависит от высоты солнца над горизонтом, облачности и скорости ветра. Ночью, в пасмурную погоду, а также при ветре 12 м/с и более поправка равна нулю.
P - Атмосферное давление - приведенное к уровню моря атмосферное давление.
Po - Атмосферное давление - измеренное на уровне метеостанции атмосферное давление.
Tmin - Минимальная температура - минимум температуры воздуха на высоте 2 м над землей.
Tmax - Максимальная температура - максимум температуры воздуха на высоте 2 м над землей.
R - Количество осадков - Количество выпавших осадков за период времени, мм. При наведении курсора мыши на число - период времени, за который выпало указанное количество осадков.
R24 - Количество осадков - Количество выпавших осадков за 24 часа, мм.
S - Снежный покров - Высота снежного покрова, см. При наведении курсора мыши на число - состояние снежного покрова и степень покрытия местности в баллах.